User: anonymous   Login
Location: Brno
(49.2000°N, 16.6330°E)
Time: 23:27:00
(UTC+01:00)
Language:

BREEZE M DEB (TANK) - Orbit

View from above orbital plane
View from above orbital plane
View from above satellite
View from above satellite

Ground track
Ground track

The orbit data is extracted from the following two-line orbital elements,

1 28359U 04022B   14328.08388947  .00004204  00000-0  66810-3 0  2997
2 28359 049.5086 256.5169 4701450 156.1453 341.8655 06.12376682227498
Epoch (UTC): 24 November 2014 02:00:48
Eccentricity: 0.4701450
inclination: 49.5086°
perigee height: 308 km
apogee height: 12175 km
right ascension of ascending node: 256.5169°
argument of perigee: 156.1453°
revolutions per day: 6.12376682
mean anomaly at epoch: 341.8655°
orbit number at epoch: 22749

The dashed part of the orbit path shows where the satellite is in the earth's shadow,  

DLR